Location: Middle Street
(51.7167°N, 0.0333°E)
Time: 02:17:49
(UTC+00:00)

Cosmos 1300 - Pass Details

Date: 20 January 2021
Orbit: 511 x 513 km, 82.5° (Epoch: 28 February)

Event Time Altitude Azimuth Distance (km) Brightness Sun altitude
Rises 17:22:44 0° 350° (N) 2,644 6.2 -8.4°
Reaches altitude 10° 17:24:53 10° 352° (N) 1,752 5.3 -8.7°
Maximum altitude 17:28:44 79° 79° (E) 530 2.6 -9.3°
Drops below altitude 10° 17:32:32 10° 167° (SSE) 1,735 5.5 -9.8°
Sets 17:34:39 0° 168° (SSE) 2,616 6.4 -10.1°
